Location: Chervonnoye
(48.6000°N, 34.4000°E)
Time: 04:26:24
(UTC+00:00)

Cosmos 1633 - Pass Details

Date: 23 November 2020
Orbit: 462 x 479 km, 82.5° (Epoch: 18 January)

Event Time Altitude Azimuth Distance (km) Brightness Sun altitude
Rises 14:30:46 0° 344° (NNW) 2,522 6.1 -6.2°
Reaches altitude 10° 14:32:55 10° 337° (NNW) 1,642 5.2 -6.5°
Maximum altitude 14:36:19 42° 266° (W) 690 4.0 -7.0°
Drops below altitude 10° 14:39:43 10° 195° (SSW) 1,637 5.8 -7.5°
Sets 14:41:51 0° 188° (S) 2,513 6.6 -7.8°
